Location: Newark
(46.9000°N, 28.3500°E)
Time: 08:51:11
(UTC+00:00)

SR - Visible Passes

Search period start: 24 August 2019 00:00
Search period end: 03 September 2019 00:00
Orbit: 578 x 878 km, 66.7° (Epoch: 23 August)

Date Brightness Start Highest point End Pass type
(mag) Time Alt. Az. Time Alt. Az. Time Alt. Az.
24 Aug ? 18:35:18 10° NNW 18:40:49 79° NE 18:44:18 25° SE visible
24 Aug ? 20:18:28 10° WNW 20:22:24 20° WSW 20:23:43 18° SW visible
25 Aug ? 17:45:46 10° NNW 17:51:03 47° NE 17:56:10 12° ESE visible
25 Aug ? 19:28:03 10° NW 19:33:04 35° WSW 19:35:36 24° SSW visible
26 Aug ? 18:38:05 10° NW 18:43:35 63° WSW 18:47:32 21° SSE visible
26 Aug ? 20:23:42 10° W 20:24:44 10° WSW 20:25:47 10° WSW visible
27 Aug ? 17:48:24 10° NNW 17:53:57 76° NE 17:59:32 11° SE visible
27 Aug ? 19:31:29 10° WNW 19:35:34 21° WSW 19:38:58 13° SSW visible
28 Aug ? 18:41:07 10° NW 18:46:13 37° WSW 18:51:02 12° S visible
29 Aug ? 17:51:11 10° NW 17:56:43 67° WSW 18:02:31 10° SSE visible
29 Aug ? 19:36:14 10° W 19:37:55 11° WSW 19:39:37 10° WSW visible
30 Aug ? 18:44:30 10° WNW 18:48:43 22° WSW 18:53:04 10° SSW visible
31 Aug ? 17:54:10 10° NW 17:59:22 39° WSW 18:04:46 10° S visible
01 Sep ? 18:48:57 10° W 18:51:05 12° WSW 18:53:15 10° SW visible
02 Sep ? 17:57:31 10° WNW 18:01:54 23° WSW 18:06:23 10° SSW visible
